Temperature
33 33 32 32 34 34 34 34 34 34 34 34 33 32 31 31 30 30 29 28 27 26 25 24 24 23 22 21 20 20 20 20 19 19 19 19 19 19 19 19 19 18 18 18
33 32 34 34 35 35 34 33 33 34 34 34 33 32 32 31 31 30 29 28 28 27 26 25 24 23 22 21 21 20 20 20 20 19 19 19 19 19 19 19 19 18 18 18
33 33 34 34 34 34 34 33 33 33 34 34 32 31 31 32 32 31 30 29 29 28 26 25 24 24 23 22 21 21 20 20 20 20 19 19 19 19 19 19 19 19 18 18
33 34 34 34 34 34 33 34 34 34 33 32 32 30 31 32 32 32 31 30 30 28 27 26 25 24 23 22 22 21 21 20 20 20 20 20 19 19 19 19 19 19 18 18
33 34 34 34 34 34 34 35 34 34 33 32 32 31 31 32 32 32 32 31 30 29 28 27 25 24 24 23 22 21 21 21 20 20 20 20 20 19 19 19 19 19 19 18
34 34 34 34 35 35 35 34 33 33 33 31 31 31 31 31 32 32 32 31 31 30 29 27 26 25 24 23 23 22 21 21 21 20 20 20 20 20 19 19 19 19 19 19
32 34 35 35 34 34 34 32 30 30 30 30 31 31 31 33 33 33 33 32 31 30 29 28 26 25 24 24 23 22 21 21 21 21 20 20 20 20 20 19 19 19 19 19
31 32 34 34 34 33 33 32 30 29 29 30 31 30 32 33 33 33 33 32 31 30 29 28 27 26 25 24 23 23 22 22 21 21 21 20 20 20 20 20 19 19 19 19
32 32 34 35 35 34 33 33 33 31 31 30 30 31 32 33 33 34 33 32 31 30 29 28 27 26 25 24 24 23 22 22 22 21 21 21 21 20 20 20 20 19 19 19
32 31 33 34 34 34 34 33 33 31 29 28 29 30 30 31 32 33 33 32 31 30 30 28 28 27 26 25 24 23 23 22 22 22 21 21 21 21 20 20 20 19 19 19
32 31 32 33 33 33 33 33 32 32 30 29 28 30 32 31 32 32 32 32 31 30 29 28 28 27 26 25 24 24 23 22 22 22 21 21 21 21 20 20 20 19 19 19
32 31 31 32 34 34 34 33 33 31 30 30 29 29 32 31 32 32 32 32 31 30 30 29 28 27 26 25 25 24 23 22 22 22 21 21 21 20 20 20 20 19 19 19
30 30 29 30 32 33 33 33 33 33 31 30 29 29 31 31 31 32 31 31 30 30 29 28 27 26 26 25 25 24 23 23 22 22 21 21 21 20 20 20 19 19 19 19
29 29 29 29 30 32 32 33 33 33 31 30 30 30 30 30 31 31 31 31 30 30 29 28 27 26 25 25 24 24 23 23 22 22 22 21 21 21 20 20 20 19 19 19
29 29 29 30 31 32 32 32 33 32 32 31 31 31 31 31 31 31 31 31 30 29 28 27 26 26 25 25 24 24 23 23 22 22 21 21 21 21 20 20 19 19 19 19
29 28 29 29 31 31 31 32 32 33 33 32 31 31 32 31 31 31 30 30 29 29 28 27 26 25 25 24 24 23 23 23 22 22 21 21 21 20 20 20 19 19 19 19
28 27 27 28 30 30 30 31 32 32 33 32 31 31 31 31 30 30 29 29 29 28 28 27 26 25 24 24 24 23 23 22 22 21 21 21 21 20 20 19 19 19 19 19
26 25 26 27 28 27 29 32 32 32 32 33 32 32 31 31 30 29 29 28 28 27 27 26 26 25 24 24 23 23 22 22 22 21 21 21 20 20 19 19 19 19 19 18
26 25 26 27 27 28 29 31 31 31 30 32 31 31 31 31 30 29 28 28 27 26 26 25 25 25 24 23 23 22 22 22 21 21 21 20 20 20 19 19 19 19 18 18
26 25 25 26 26 26 28 30 31 31 29 31 30 30 30 30 29 28 27 27 26 26 25 25 24 24 23 23 22 22 21 21 21 21 20 20 20 20 19 19 19 19 18 18
25 24 24 25 25 26 29 30 30 28 27 29 29 28 28 28 28 27 26 26 25 25 25 24 24 23 23 23 22 22 21 21 21 20 20 20 20 19 19 19 19 19 18 18
25 25 24 24 24 25 28 28 27 26 27 27 27 27 27 27 26 26 25 25 25 24 24 24 23 23 22 22 22 21 21 21 20 20 19 19 19 19 19 19 18 18 18 18
25 25 25 25 25 25 26 25 25 25 26 26 26 26 26 26 26 25 25 24 24 24 23 23 23 22 22 21 21 21 20 20 20 19 19 19 19 18 18 18 18 18 18 17
25 25 25 24 24 25 25 25 25 25 25 25 25 25 25 25 25 24 24 23 23 23 22 22 22 21 21 20 20 20 20 20 19 19 19 18 18 18 18 18 18 17 17 17
24 24 24 23 24 24 24 24 24 24 24 24 24 24 24 24 23 23 23 22 22 22 22 21 21 21 20 20 19 19 19 19 19 19 18 18 18 18 18 18 18 17 17 17
23 23 23 23 23 23 23 23 23 23 23 23 23 23 23 23 22 22 22 22 21 21 21 21 20 20 20 19 19 19 19 19 19 18 18 18 17 17 17 17 17 17 17 17
Wind_Speed
12 9 10 10 12 9 5 2 2 5 7 5 7 12 13 14 14 14 14 14 13 13 13 13 12 11 10 9 8 7 5 5 3 2 2 2 2 2 2 2 4 3 1 1
12 12 11 10 10 7 5 3 3 5 7 4 4 7 11 13 13 14 14 13 14 14 14 13 12 11 11 10 9 7 6 6 5 3 2 2 2 2 2 2 4 3 2 0
15 10 10 11 10 8 7 7 6 4 6 4 2 4 7 12 12 13 14 15 15 15 16 15 14 12 12 11 10 8 7 6 5 4 3 2 2 1 2 3 3 2 2 1
14 11 11 12 11 9 8 7 7 6 6 4 5 4 7 11 12 13 12 13 14 15 16 16 15 13 12 12 11 8 8 7 5 4 3 3 3 2 3 2 3 3 2 2
14 14 15 13 11 9 8 7 9 9 7 5 7 6 6 9 11 12 13 13 13 15 16 16 16 14 13 13 12 10 9 7 6 5 4 3 2 2 2 2 3 3 3 2
15 13 14 14 12 10 9 9 10 10 8 8 7 7 5 7 9 10 11 12 12 14 16 15 16 14 12 12 11 12 10 8 7 6 5 4 3 2 1 1 2 2 3 2
16 16 15 13 13 12 10 8 7 7 7 8 7 5 4 6 8 9 11 11 12 13 14 15 15 15 13 12 11 11 11 9 8 7 6 5 4 3 2 2 2 2 2 3
16 15 16 14 13 11 12 12 9 8 7 5 4 3 4 7 7 9 11 11 12 13 13 15 15 15 15 14 12 12 12 10 9 8 6 5 5 4 3 3 2 2 1 2
12 13 14 14 13 13 13 12 12 10 9 7 4 3 4 6 7 9 11 12 11 12 14 14 14 15 15 14 13 12 12 10 9 8 7 6 5 4 3 3 3 2 2 2
12 10 13 14 13 15 14 12 8 8 7 7 6 6 5 7 7 8 10 11 11 12 13 12 13 13 12 13 12 12 12 11 9 9 7 8 7 5 4 3 3 2 1 1
14 11 11 13 15 14 13 13 10 7 6 7 6 4 4 5 7 7 8 10 11 11 12 12 11 11 12 12 13 11 12 11 10 9 8 6 7 7 6 4 4 3 3 2
11 10 11 13 12 13 14 14 13 9 6 6 6 4 3 3 4 5 7 7 10 10 11 11 11 11 11 12 12 11 11 11 10 9 8 7 6 6 6 5 4 4 4 4
5 7 9 13 13 15 15 14 14 12 8 7 7 5 5 5 4 5 6 6 7 8 9 10 9 9 8 9 9 10 10 11 11 10 9 8 7 7 6 6 5 4 4 3
5 8 11 13 12 12 13 15 14 13 9 9 8 6 7 6 4 5 7 7 9 9 8 9 9 8 7 7 7 7 8 9 9 9 9 8 8 7 7 5 5 5 4 4
6 11 13 15 15 13 13 14 14 14 13 11 9 9 7 6 5 6 7 8 7 7 8 8 8 7 7 7 7 6 6 7 7 8 8 7 7 6 6 6 5 5 5 5
7 9 12 15 17 16 15 14 15 15 13 11 8 5 3 2 3 5 6 5 6 5 6 7 7 7 7 7 7 7 6 6 7 7 7 6 6 6 6 6 5 5 5 4
8 8 11 14 16 15 17 15 14 13 13 12 8 5 4 3 3 5 5 5 5 4 4 5 6 6 6 6 6 6 7 7 7 7 7 7 7 7 6 7 6 5 5 5
7 7 8 12 13 17 12 12 12 10 9 8 6 5 5 5 4 4 5 5 4 4 3 4 5 6 6 5 5 5 6 7 7 7 7 7 7 7 7 6 6 5 4 4
9 8 9 11 14 16 11 11 11 9 8 6 4 4 4 2 3 3 3 4 4 3 3 3 3 5 6 6 6 5 6 7 7 7 7 7 7 6 6 6 5 4 4 4
10 8 10 11 13 14 10 9 9 8 9 5 3 1 0 2 2 0 2 4 3 3 3 2 3 3 4 5 6 6 5 6 6 6 5 5 5 5 5 5 5 4 4 4
13 12 13 13 13 10 8 7 8 9 4 1 1 3 3 2 1 2 4 4 4 3 3 3 3 2 3 5 5 5 4 4 4 4 3 4 4 5 5 4 4 4 5 5
12 13 13 13 13 10 6 5 3 2 4 4 2 2 2 3 3 3 4 4 3 2 2 3 3 3 4 4 5 4 4 3 3 3 3 3 4 5 5 4 4 5 5 6
10 8 8 7 6 1 2 3 3 4 5 5 4 3 2 2 1 2 3 2 2 1 1 2 3 4 4 4 4 3 3 3 4 4 4 3 3 3 3 4 5 5 4 5
8 5 5 4 5 3 2 2 3 3 3 4 4 4 4 4 4 3 2 2 1 1 1 1 2 3 3 3 3 2 3 3 3 4 4 3 4 4 3 3 4 4 5 6
6 5 5 5 4 3 1 2 2 2 3 4 5 4 4 4 5 4 2 1 1 1 1 1 1 2 3 3 3 2 2 3 3 3 4 4 4 4 3 3 3 4 3 4
6 5 6 5 3 3 2 2 3 3 3 4 5 5 4 4 4 4 2 0 0 1 0 1 1 2 2 3 3 2 2 3 3 3 4 4 4 3 3 3 3 1 2 2
Wind_Direction
226 223 224 232 231 235 239 228 135 139 142 151 151 147 160 166 169 168 171 170 171 170 165 163 163 159 155 150 153 156 155 148 158 171 168 164 149 171 144 140 131 129 113 92
229 224 225 237 242 241 254 254 220 164 158 168 171 158 160 168 180 176 172 175 172 170 167 165 166 165 161 159 162 160 160 162 175 168 172 178 167 177 150 127 129 138 128 47
230 222 222 230 234 235 235 239 237 209 174 178 210 185 174 173 178 176 175 177 177 174 171 169 171 172 169 166 166 171 168 167 177 172 179 182 165 171 146 140 142 141 154 173
232 229 234 238 238 232 240 243 252 239 225 215 208 209 188 182 176 177 178 179 179 174 172 172 174 174 172 169 169 163 160 163 166 173 189 190 183 183 177 162 148 150 166 180
232 224 231 237 239 230 245 250 261 263 245 238 223 233 191 177 176 176 179 181 178 175 173 174 174 172 174 172 168 163 160 163 168 181 191 205 199 196 165 147 154 163 175 191
241 234 236 238 242 235 242 255 266 270 263 246 231 240 188 177 177 177 175 178 177 174 171 170 168 165 172 173 170 165 161 166 172 182 187 200 213 207 169 170 174 189 174 172
234 237 237 234 235 231 226 240 248 251 241 245 237 237 183 169 170 173 171 172 173 172 167 166 167 168 172 174 172 164 160 168 173 181 189 191 206 205 192 214 203 220 180 158
227 228 227 227 232 236 230 230 233 242 242 235 237 237 177 159 160 164 160 161 164 168 166 168 169 169 174 175 171 165 162 168 175 182 188 189 195 208 206 209 213 221 212 145
234 229 222 223 226 234 234 237 242 253 267 272 239 199 188 162 152 159 154 155 162 168 169 169 170 172 175 175 174 171 164 168 176 183 183 185 190 212 214 189 210 214 205 175
249 246 229 218 222 229 236 239 244 242 259 263 255 235 207 161 171 167 157 156 162 166 165 171 171 170 172 172 170 169 165 169 175 182 188 190 191 201 206 202 200 203 207 196
243 246 242 223 216 221 225 234 243 247 252 251 251 241 158 175 182 169 162 158 161 160 160 167 170 168 169 169 169 169 168 169 176 182 186 194 182 190 192 201 203 200 209 203
237 244 244 234 227 229 231 234 239 239 240 254 257 254 185 173 187 172 159 157 156 157 157 157 162 167 170 170 171 171 173 174 179 181 182 191 185 183 188 195 197 198 199 207
274 255 242 238 227 225 229 229 236 242 242 243 243 227 175 176 178 165 147 149 147 148 152 152 151 154 161 168 168 170 174 176 180 182 184 185 186 188 195 197 186 190 199 208
264 246 246 243 238 221 226 231 232 238 239 238 234 208 186 187 172 154 151 155 150 148 149 147 141 147 156 161 158 163 170 174 179 178 183 184 190 192 192 192 187 189 196 210
247 246 249 256 261 249 242 235 233 237 240 235 226 213 198 179 173 154 147 145 144 147 144 139 143 150 159 162 156 163 172 172 176 177 183 186 185 185 186 190 195 194 200 214
242 262 257 253 256 254 252 244 235 238 243 242 230 221 203 178 157 136 132 144 146 141 140 143 146 154 162 163 166 167 170 172 171 180 187 182 180 184 192 195 195 196 202 215
235 250 257 253 249 246 247 245 239 232 233 238 229 214 181 181 158 145 144 149 142 140 146 152 151 160 165 168 169 171 174 174 175 182 187 183 183 188 194 204 198 201 205 213
252 265 254 251 251 245 248 251 249 246 247 234 216 199 200 197 164 140 127 122 119 140 154 158 163 168 177 171 166 170 177 177 179 185 192 188 189 192 193 199 202 202 204 212
236 241 250 249 243 240 242 246 248 246 250 247 227 214 215 187 142 101 86 98 106 106 113 144 160 180 174 169 167 171 178 177 182 189 193 190 190 194 198 203 202 204 209 216
220 224 239 245 243 243 239 246 257 246 239 254 257 280 22 183 213 92 89 95 92 97 110 126 141 164 164 157 156 165 177 176 188 192 192 190 189 194 200 204 203 207 214 220
212 215 229 241 247 252 263 268 263 240 239 340 19 57 54 53 25 62 71 84 88 108 128 130 135 144 132 131 139 156 166 185 185 178 181 189 194 198 204 202 198 201 211 219
223 216 220 232 239 242 289 275 267 15 30 26 34 50 32 38 51 52 71 78 86 82 121 134 131 126 123 130 143 162 177 180 172 169 180 196 206 217 212 201 208 211 216 219
229 232 229 231 228 279 1 63 66 39 30 21 17 23 4 349 23 41 61 76 84 86 85 118 121 122 132 144 154 183 187 170 170 170 183 197 209 223 215 206 214 220 223 228
221 236 239 236 213 228 314 32 53 43 17 4 1 359 351 352 351 2 63 55 40 59 69 110 124 138 143 146 155 189 170 163 167 177 182 191 210 216 217 221 220 221 226 233
265 241 241 238 233 243 254 330 358 6 352 342 337 334 339 343 346 352 13 91 41 18 48 136 152 148 145 142 150 165 165 162 179 189 191 206 215 213 216 221 228 227 238 238
261 262 253 250 276 281 293 340 338 329 315 319 323 324 320 325 326 330 333 13 301 274 251 177 165 162 157 156 158 161 185 180 189 202 207 215 222 216 212 212 236 270 246 245
Height
1473 1477 1479 1475 1471 1469 1469 1473 1477 1475 1471 1476 1482 1487 1490 1493 1497 1501 1506 1510 1514 1518 1522 1525 1528 1530 1532 1534 1535 1537 1538 1539 1540 1541 1542 1543 1544 1544 1544 1545 1544 1544 1545 1544
1472 1475 1469 1468 1466 1466 1469 1476 1477 1473 1470 1475 1481 1484 1484 1490 1492 1496 1501 1506 1510 1515 1519 1523 1526 1529 1531 1533 1534 1536 1537 1538 1539 1540 1541 1543 1544 1544 1544 1545 1545 1544 1544 1544
1472 1468 1465 1466 1467 1471 1472 1475 1476 1476 1472 1474 1481 1489 1486 1485 1488 1492 1497 1501 1506 1511 1515 1520 1524 1527 1529 1531 1533 1534 1536 1537 1538 1540 1541 1543 1543 1544 1544 1544 1544 1544 1544 1544
1465 1463 1464 1466 1467 1469 1476 1467 1468 1470 1479 1486 1486 1504 1490 1484 1485 1488 1493 1497 1501 1506 1511 1516 1520 1524 1527 1529 1531 1533 1534 1536 1537 1539 1540 1541 1542 1543 1543 1544 1544 1544 1544 1544
1463 1461 1463 1466 1464 1464 1469 1464 1467 1468 1475 1484 1484 1495 1490 1480 1484 1485 1488 1493 1497 1502 1508 1512 1517 1521 1524 1527 1529 1531 1532 1534 1536 1537 1538 1539 1541 1542 1543 1543 1543 1543 1543 1543
1458 1457 1458 1460 1458 1460 1463 1467 1470 1471 1477 1496 1487 1491 1493 1481 1480 1480 1484 1489 1494 1499 1504 1509 1514 1518 1522 1525 1528 1529 1530 1532 1534 1536 1537 1538 1539 1541 1541 1542 1542 1542 1543 1542
1463 1457 1455 1456 1460 1461 1466 1482 1499 1504 1504 1501 1480 1485 1486 1472 1470 1475 1480 1485 1490 1495 1501 1506 1511 1515 1519 1523 1525 1527 1528 1530 1532 1534 1535 1537 1538 1539 1540 1541 1541 1542 1542 1542
1470 1469 1456 1453 1459 1464 1465 1475 1498 1513 1510 1497 1485 1490 1477 1467 1469 1472 1477 1483 1488 1493 1498 1503 1507 1512 1516 1519 1523 1525 1526 1528 1530 1532 1534 1535 1536 1538 1539 1539 1540 1541 1541 1541
1464 1466 1451 1450 1452 1457 1466 1469 1467 1482 1488 1497 1491 1483 1474 1466 1468 1470 1475 1480 1486 1490 1495 1500 1505 1509 1513 1517 1520 1522 1524 1526 1528 1530 1532 1533 1535 1536 1537 1538 1539 1539 1540 1540
1455 1465 1452 1449 1453 1453 1456 1461 1469 1484 1505 1514 1501 1492 1485 1473 1472 1471 1473 1478 1483 1488 1493 1498 1502 1507 1511 1514 1517 1520 1522 1524 1526 1528 1530 1532 1533 1534 1535 1536 1537 1538 1538 1539
1452 1463 1459 1453 1457 1460 1460 1463 1467 1473 1483 1502 1511 1496 1468 1471 1470 1471 1473 1477 1482 1486 1490 1496 1500 1504 1509 1512 1515 1518 1520 1522 1524 1525 1528 1530 1531 1532 1533 1534 1535 1536 1536 1537
1452 1457 1464 1455 1447 1448 1452 1458 1463 1480 1487 1486 1495 1494 1463 1467 1468 1469 1472 1477 1480 1484 1488 1493 1498 1502 1507 1510 1513 1515 1518 1520 1522 1523 1525 1527 1529 1530 1531 1532 1533 1534 1534 1535
1457 1463 1475 1471 1462 1453 1453 1453 1455 1460 1472 1483 1492 1491 1467 1469 1469 1471 1473 1477 1481 1484 1488 1492 1496 1501 1505 1508 1511 1513 1516 1518 1520 1522 1523 1525 1526 1528 1529 1530 1531 1532 1532 1533
1461 1464 1471 1477 1465 1455 1457 1455 1453 1460 1473 1480 1480 1481 1473 1471 1471 1471 1474 1477 1480 1484 1487 1491 1495 1499 1502 1505 1508 1511 1514 1516 1518 1519 1521 1522 1524 1525 1526 1527 1528 1529 1530 1530
1460 1465 1463 1459 1453 1449 1453 1454 1453 1458 1460 1470 1472 1471 1469 1468 1469 1471 1473 1476 1480 1483 1487 1490 1493 1496 1500 1503 1506 1509 1511 1514 1516 1517 1518 1519 1521 1522 1523 1525 1526 1527 1527 1528
1462 1466 1464 1464 1456 1452 1454 1451 1452 1454 1455 1458 1463 1467 1462 1466 1468 1470 1473 1476 1479 1483 1486 1489 1493 1495 1497 1500 1503 1506 1509 1511 1513 1515 1516 1517 1518 1520 1521 1522 1523 1524 1524 1525
1464 1469 1473 1470 1458 1457 1464 1454 1452 1452 1451 1456 1465 1465 1463 1466 1469 1471 1474 1477 1479 1483 1486 1489 1491 1493 1495 1498 1500 1502 1505 1507 1509 1511 1513 1514 1516 1517 1518 1519 1520 1520 1521 1522
1469 1472 1472 1470 1469 1482 1460 1446 1447 1450 1451 1450 1455 1458 1462 1465 1468 1471 1474 1476 1479 1483 1485 1487 1489 1493 1494 1496 1498 1500 1503 1505 1506 1509 1510 1511 1512 1514 1515 1516 1517 1517 1518 1518
1466 1471 1474 1472 1474 1468 1456 1449 1448 1453 1456 1452 1455 1458 1461 1464 1467 1472 1474 1477 1480 1482 1484 1487 1489 1491 1492 1494 1496 1498 1500 1502 1504 1506 1508 1509 1510 1511 1512 1513 1513 1514 1515 1515
1463 1468 1475 1472 1477 1477 1461 1449 1448 1453 1462 1456 1457 1460 1463 1465 1471 1475 1476 1477 1479 1481 1484 1486 1487 1489 1490 1491 1493 1495 1498 1500 1502 1503 1505 1506 1506 1507 1508 1509 1510 1510 1511 1511
1467 1470 1474 1474 1475 1466 1453 1450 1450 1466 1468 1460 1460 1462 1465 1468 1471 1475 1476 1477 1479 1481 1483 1485 1486 1487 1488 1489 1491 1493 1495 1497 1499 1500 1501 1502 1503 1504 1505 1506 1506 1507 1507 1508
1463 1466 1471 1472 1476 1473 1456 1453 1459 1464 1462 1463 1463 1464 1467 1470 1472 1474 1475 1476 1479 1480 1482 1483 1484 1485 1487 1488 1489 1491 1493 1495 1497 1498 1498 1499 1500 1501 1502 1502 1503 1503 1504 1504
1456 1458 1460 1463 1466 1462 1459 1460 1462 1464 1465 1465 1465 1467 1469 1471 1473 1475 1476 1477 1479 1480 1481 1482 1483 1484 1485 1487 1487 1488 1491 1493 1494 1494 1495 1496 1497 1497 1498 1499 1499 1500 1500 1500
1454 1455 1458 1461 1462 1462 1462 1463 1464 1466 1467 1468 1468 1469 1470 1472 1473 1474 1475 1477 1478 1479 1480 1480 1481 1482 1483 1485 1486 1488 1490 1490 1491 1491 1492 1493 1494 1495 1495 1496 1496 1496 1496 1496
1455 1456 1458 1461 1462 1463 1464 1465 1466 1467 1468 1469 1469 1470 1471 1472 1472 1474 1474 1476 1477 1478 1478 1479 1480 1481 1482 1483 1484 1486 1487 1488 1488 1489 1490 1491 1492 1492 1492 1492 1493 1493 1493 1493
1457 1459 1461 1462 1463 1464 1465 1466 1467 1468 1469 1470 1470 1471 1471 1472 1472 1473 1473 1474 1475 1476 1477 1477 1478 1479 1480 1481 1482 1483 1485 1485 1486 1487 1487 1488 1489 1489 1489 1489 1489 1489 1490 1490